Theta_e
337 337 337 337 337 334 334 330 320 322 328 328 330 331 330 331 331 331 331 333 334 333 331 330 329 330 330 329 330 328 322 319 320 319 318 319 323 326 327 327 328 329 329 329 330 329 329 329 328 327 326 325 325 324 325 325 322 321 319 317 316 315
337 337 337 337 336 335 335 326 319 326 331 331 332 332 332 333 333 334 333 334 334 334 332 330 330 330 330 330 330 326 321 320 319 319 319 318 320 324 327 328 328 329 330 330 330 331 331 330 330 329 328 327 326 325 326 326 324 323 322 320 318 316
336 337 336 337 335 335 334 323 321 330 332 333 334 333 333 333 334 334 334 335 334 334 332 330 329 329 331 331 329 324 322 323 321 320 319 319 319 321 325 328 329 329 330 331 330 331 331 331 330 330 330 329 328 326 326 327 326 325 324 324 321 318
336 336 336 336 335 335 332 321 325 332 332 334 333 332 332 332 334 334 335 335 335 334 332 330 329 329 330 330 326 323 323 323 323 322 320 319 319 319 322 326 328 329 331 331 331 330 331 331 331 331 330 329 328 327 327 328 328 327 326 325 322 319
335 336 336 336 335 335 329 322 329 333 332 333 333 331 330 332 334 334 335 334 334 333 331 331 330 330 328 327 325 323 323 322 322 322 321 320 320 319 319 321 324 327 329 330 330 330 330 331 331 331 330 330 328 327 327 328 328 328 327 324 321 319
336 336 336 336 335 335 329 325 331 333 332 333 331 329 329 332 333 334 334 333 332 332 331 330 330 329 326 325 324 322 322 321 321 320 321 321 320 320 319 318 319 321 323 325 327 328 329 330 331 332 331 330 329 328 328 328 328 329 327 324 321 319
336 335 336 336 335 335 328 324 329 332 332 332 330 328 328 331 332 332 331 330 330 330 330 329 329 327 324 324 323 322 322 321 321 320 320 320 320 320 320 319 318 318 319 320 324 326 327 328 331 332 331 330 329 328 328 328 329 329 327 325 322 320
336 335 336 335 335 335 325 321 329 331 331 331 329 327 328 329 330 329 328 328 328 329 329 328 328 326 323 323 323 324 324 322 322 322 321 320 320 320 319 319 319 320 320 320 321 323 325 327 330 332 332 330 330 329 329 329 329 329 329 328 325 322
335 334 336 334 335 333 323 323 329 330 331 331 329 327 327 327 327 327 327 327 327 328 328 328 328 325 323 324 325 327 326 325 326 326 325 324 323 322 321 320 319 322 322 322 322 323 324 326 330 332 332 331 330 329 329 329 330 330 330 329 329 325
335 335 335 334 333 329 323 325 329 330 332 331 328 327 326 326 326 326 326 327 327 328 329 329 328 325 324 325 327 328 327 327 326 326 327 327 326 325 324 322 322 323 324 325 324 324 325 326 329 331 331 330 330 329 329 329 330 331 330 330 330 328
335 335 334 332 331 326 323 327 329 330 331 330 329 327 325 326 326 326 326 326 326 327 329 329 328 326 326 326 327 328 327 327 326 325 326 326 327 327 327 325 325 326 326 326 326 326 326 326 329 331 331 330 329 329 328 329 329 331 330 330 330 328
335 334 331 331 329 325 324 327 329 330 331 331 328 326 325 326 326 327 326 325 325 327 329 328 328 327 326 326 327 327 326 326 326 325 325 325 326 326 327 327 327 328 328 328 327 328 328 328 329 329 329 329 328 328 328 328 329 330 330 330 330 326
333 332 329 329 327 324 325 328 329 330 331 330 328 325 325 326 327 326 325 324 325 327 328 328 328 327 325 325 326 326 326 325 326 325 325 326 326 326 327 328 327 327 327 328 327 328 329 329 328 328 328 328 329 329 328 329 330 330 330 329 329 326
332 330 327 327 325 324 326 328 329 331 331 330 328 325 325 326 326 326 324 324 325 326 327 327 327 326 325 324 325 326 326 326 326 326 326 326 326 326 326 326 327 327 327 327 327 327 328 328 328 328 328 328 328 328 329 330 330 329 329 327 327 326
331 327 326 325 324 326 328 329 330 331 331 330 327 325 326 327 327 326 325 324 325 325 325 325 325 325 325 325 325 325 326 326 326 326 326 325 326 326 325 324 325 327 327 327 327 327 327 327 327 328 327 327 327 327 328 329 329 329 328 327 327 326
330 327 325 325 325 327 328 330 331 331 332 330 326 325 327 328 327 327 326 326 326 326 326 325 325 325 325 326 326 326 325 325 325 325 325 324 325 325 325 325 325 327 327 327 328 327 327 327 327 327 327 327 326 327 328 329 329 329 327 327 327 326
331 328 327 326 325 326 329 331 331 332 332 329 326 325 328 328 327 328 328 327 327 327 326 326 325 325 325 325 326 326 326 325 325 325 325 325 325 325 325 325 325 326 327 327 328 328 327 327 327 327 327 327 327 328 329 329 329 328 327 327 327 327
332 331 329 328 327 327 329 331 331 332 331 329 326 326 327 328 327 328 328 327 327 327 327 326 325 325 325 326 327 327 327 326 326 326 325 325 325 325 324 325 326 326 327 327 328 328 327 326 326 326 326 326 327 328 328 328 328 328 327 327 327 326
334 332 332 331 330 330 330 331 332 332 331 328 327 327 327 327 328 328 328 327 327 327 326 325 325 326 327 327 327 327 328 327 327 327 326 325 326 326 325 325 325 325 326 327 328 327 326 326 326 326 326 327 327 327 327 328 328 328 328 327 326 326
335 333 333 333 333 332 332 332 332 332 330 328 327 327 327 327 327 328 328 327 327 326 325 325 327 327 327 326 325 325 327 328 328 328 328 326 326 326 325 325 324 325 326 327 327 327 326 326 326 326 326 327 327 327 326 328 328 327 327 327 327 326
335 335 334 334 334 334 333 333 332 331 330 327 327 327 327 326 327 328 328 327 325 325 326 327 326 326 326 325 324 324 327 328 328 329 328 328 327 327 326 325 324 325 326 327 327 326 327 327 326 327 327 327 327 327 327 327 328 327 326 325 326 326
336 336 335 334 334 334 333 332 331 330 329 328 327 327 326 327 328 328 327 325 326 326 326 326 324 324 325 326 325 325 327 327 328 328 328 328 327 326 326 325 323 325 326 326 327 326 326 327 327 326 327 327 327 327 328 327 327 327 326 325 325 326
336 336 336 335 335 334 333 331 330 328 328 328 327 327 327 328 328 327 326 326 327 327 326 325 324 325 326 326 326 326 326 327 327 328 329 328 326 326 326 325 323 325 326 326 327 327 326 326 327 326 327 327 327 327 327 327 327 327 326 326 325 326
336 336 335 335 334 333 332 331 329 328 327 328 327 328 328 328 327 327 327 328 328 327 326 326 327 327 327 326 326 327 326 326 327 327 328 327 325 325 326 325 324 325 326 326 327 326 325 325 326 326 327 327 326 327 328 327 327 327 327 327 326 326
336 336 335 334 334 333 332 331 329 328 328 328 328 328 328 327 327 327 327 327 327 327 327 327 327 327 327 326 326 326 326 325 325 325 325 324 324 324 325 324 323 324 325 326 326 326 325 325 326 326 327 327 326 327 328 327 326 326 326 326 326 326
335 335 334 334 333 333 332 330 328 328 329 329 328 327 327 326 327 327 327 327 326 326 326 326 326 326 325 325 325 325 325 326 325 324 323 323 324 324 323 323 323 323 324 325 325 325 325 325 326 326 326 326 326 327 327 326 326 326 325 326 326 326
335 334 334 333 332 332 331 329 328 328 328 328 327 326 326 326 326 327 326 326 325 325 325 325 324 324 324 324 324 324 324 325 326 325 324 323 324 324 323 323 323 323 323 324 325 325 325 325 326 326 326 326 325 325 325 325 326 325 325 325 326 326
334 334 334 333 332 332 331 329 328 328 327 326 325 324 325 325 325 325 324 323 323 323 322 321 321 321 322 323 324 323 323 324 325 325 325 324 324 324 323 323 323 323 323 323 324 324 325 326 326 326 326 326 325 325 325 325 324 325 325 326 326 325
334 334 333 332 331 330 330 330 329 327 326 326 325 324 323 324 323 322 320 320 320 319 317 316 316 317 317 317 320 321 322 323 324 325 325 325 325 325 325 324 323 323 323 323 324 324 324 325 326 327 327 326 326 325 326 325 325 324 325 325 325 325
333 333 333 331 330 330 330 330 328 326 326 326 325 323 323 323 321 319 318 318 318 317 316 315 315 314 313 313 317 319 319 321 323 324 324 324 325 325 325 325 325 324 324 324 324 324 324 324 326 327 327 327 326 326 326 326 325 325 325 324 325 325
333 333 332 331 330 330 330 329 327 326 326 325 324 324 323 320 317 316 317 317 317 316 317 317 316 315 314 315 318 319 318 319 321 322 322 323 324 325 325 325 325 325 325 325 325 325 324 324 325 326 326 327 327 327 326 326 325 325 325 325 325 324
333 332 331 331 330 330 329 328 326 326 325 324 323 323 320 315 314 315 316 316 316 317 318 318 317 317 316 317 318 319 320 320 320 320 319 321 322 323 324 325 325 325 325 325 325 325 325 325 325 325 326 326 326 327 326 325 325 325 325 324 324 324
333 332 331 330 330 330 328 325 326 326 325 324 323 321 316 314 314 315 315 316 317 318 318 317 316 316 316 316 316 317 319 320 320 320 320 320 320 321 323 324 325 326 326 326 325 326 326 326 325 325 326 326 326 326 326 326 326 325 325 324 324 324
332 332 332 330 329 329 326 324 326 326 325 324 322 318 315 314 315 315 316 318 319 319 317 315 314 313 312 315 315 315 317 320 320 320 321 321 320 319 320 323 325 326 326 326 325 325 326 326 325 325 326 326 326 325 326 326 325 325 325 324 324 324
332 332 332 330 330 329 325 325 327 326 324 324 321 317 316 316 316 317 318 320 320 319 317 316 315 313 310 312 314 314 316 319 320 321 321 321 320 318 319 322 325 324 325 324 324 324 325 325 325 325 325 326 325 325 325 325 325 325 325 324 324 323
332 332 332 331 330 329 326 326 327 325 324 324 320 318 318 318 318 318 319 320 320 319 319 317 316 314 310 310 312 314 316 318 319 319 320 320 319 317 318 322 323 322 322 322 322 323 322 322 323 324 325 326 325 325 325 325 325 325 325 324 324 323
332 332 332 332 330 329 327 327 327 325 324 324 321 319 319 319 318 318 319 321 320 320 319 317 316 315 311 309 311 314 315 317 318 319 319 319 317 316 316 320 322 320 320 320 320 321 320 321 322 323 324 325 325 326 326 325 324 325 324 324 323 323
Wind_Speed
22 22 20 20 19 18 17 15 15 16 16 16 17 17 17 17 17 17 18 17 17 18 17 16 15 14 14 13 12 11 11 12 12 14 17 19 19 19 18 16 15 14 12 10 8 7 6 7 8 9 8 9 10 11 13 13 12 13 13 13 14 12
22 21 21 20 19 19 17 17 18 17 16 17 17 17 18 17 17 17 17 17 16 17 16 15 15 14 13 11 11 11 12 12 11 11 12 15 17 19 18 17 16 14 13 12 10 8 6 6 7 8 8 8 9 10 11 11 11 11 11 12 12 12
22 21 21 21 20 20 18 19 19 18 18 17 17 17 17 16 16 15 16 16 16 16 15 14 13 12 12 10 10 12 13 13 12 11 10 12 14 17 18 18 17 15 14 13 11 9 7 6 7 8 8 8 9 9 10 10 9 9 10 10 10 10
23 21 21 22 21 20 19 20 19 19 19 17 16 16 15 15 16 15 16 16 15 15 15 14 13 11 10 10 10 11 12 12 12 12 11 10 11 13 16 18 18 17 16 15 13 10 8 7 6 8 8 8 8 8 9 9 9 9 9 10 9 10
23 21 21 22 21 21 20 20 20 19 18 17 15 15 14 15 15 15 15 15 14 14 13 13 13 11 9 9 9 9 10 11 12 12 11 10 10 11 12 15 17 17 17 16 14 11 9 8 6 7 8 8 7 7 8 8 9 9 9 9 9 10
22 21 22 22 22 21 20 20 20 19 17 16 14 14 14 15 15 15 14 14 14 13 12 12 12 10 9 9 8 8 8 8 9 10 10 9 9 9 9 11 13 15 16 16 15 12 10 9 7 7 8 7 7 7 7 8 8 8 9 9 9 9
22 22 22 22 22 20 20 21 20 18 16 15 13 13 14 15 14 14 14 13 14 13 12 12 11 10 10 9 8 7 6 5 6 7 7 8 8 8 8 8 9 11 12 14 14 12 11 10 8 7 7 7 7 7 7 7 7 8 8 8 8 9
22 22 22 23 22 20 20 21 19 16 15 14 13 14 15 15 15 15 14 13 13 12 12 11 10 10 10 9 8 6 6 5 5 6 6 7 8 8 8 7 7 7 8 10 11 11 10 10 9 8 7 7 7 7 7 7 6 7 7 6 7 7
22 23 22 23 22 20 21 20 18 16 14 13 13 14 14 15 15 16 15 14 13 12 11 10 10 10 9 9 7 7 6 6 6 6 6 7 7 8 7 6 6 6 5 5 6 7 8 9 10 9 7 7 6 6 6 6 6 6 6 5 4 4
22 23 23 22 21 20 21 19 17 16 14 14 14 14 14 15 15 15 15 15 14 12 11 10 10 10 9 8 7 7 6 6 6 6 5 6 6 6 6 6 6 6 5 4 3 4 5 7 10 9 7 6 6 5 5 5 5 5 5 5 4 2
21 22 23 21 21 20 20 18 17 16 15 14 14 14 15 15 15 15 15 15 14 13 12 11 11 11 10 8 7 7 6 6 5 4 4 5 5 5 5 6 6 6 5 4 4 4 5 7 9 9 8 6 5 4 4 4 5 5 5 5 4 3
21 21 22 21 20 20 19 18 17 16 14 14 13 15 15 15 15 15 15 14 14 14 14 13 13 11 10 9 9 8 7 6 5 5 5 5 5 5 6 6 7 6 6 5 4 6 7 8 9 9 8 7 5 5 5 5 5 5 5 5 4 3
20 21 21 21 21 20 19 18 17 15 14 14 13 15 16 16 16 15 15 15 14 14 15 14 14 13 11 10 10 9 8 7 6 6 6 5 5 5 6 6 7 7 7 6 5 7 8 9 9 8 8 7 6 6 5 5 6 6 5 5 5 4
21 22 21 21 20 20 19 17 16 15 14 13 13 15 16 16 16 15 14 15 15 14 14 13 13 12 11 10 10 9 9 9 8 7 6 6 6 6 6 7 7 7 7 7 7 7 8 8 9 8 8 6 5 4 4 6 7 6 6 5 6 6
20 21 21 21 20 20 19 17 16 16 14 13 13 15 16 15 16 15 14 14 14 13 13 12 12 11 11 10 9 9 9 9 8 8 7 6 7 6 6 6 7 7 6 8 8 8 8 8 9 8 6 4 3 3 5 6 7 7 6 6 5 5
19 19 21 21 21 20 18 16 16 15 14 13 14 15 15 15 15 15 14 13 13 12 11 10 10 10 11 10 10 9 9 9 8 8 7 7 7 7 7 7 7 7 7 8 9 8 8 8 8 7 5 2 3 4 6 7 7 7 7 7 6 4
20 20 21 21 21 19 17 17 16 15 15 14 15 16 15 14 13 13 13 12 12 11 10 9 10 10 11 11 10 9 8 9 9 8 7 7 7 7 7 7 7 8 9 9 8 8 8 7 7 6 5 4 4 5 6 6 6 7 7 8 7 6
22 21 21 21 21 20 18 17 16 15 15 15 16 16 15 14 13 12 12 11 11 10 10 9 10 10 10 11 10 9 8 8 9 8 8 8 7 7 7 9 8 8 10 10 8 8 7 7 7 7 5 5 5 6 6 5 5 6 8 8 8 7
23 24 23 22 21 21 19 18 18 17 17 17 17 16 15 14 13 12 11 11 11 10 10 9 9 8 8 9 9 8 8 8 8 8 9 9 8 8 8 10 10 9 10 10 9 8 8 7 7 7 7 6 7 7 5 4 5 6 7 7 8 7
25 26 25 24 23 22 20 19 19 19 20 19 18 16 15 14 13 13 11 10 10 10 10 9 9 8 8 8 8 8 9 10 10 9 9 9 9 8 9 11 10 10 10 10 10 9 8 7 8 8 8 7 8 7 5 4 5 6 7 7 7 8
26 28 27 26 24 23 22 22 22 21 21 21 19 17 15 14 13 13 12 11 10 10 10 9 8 8 8 8 8 9 10 11 11 9 9 8 8 9 11 11 11 11 11 10 10 10 10 8 7 8 8 8 8 8 5 4 5 5 6 7 9 9
27 28 28 27 25 23 22 23 23 22 21 20 18 17 16 15 14 13 12 11 10 10 9 9 8 8 8 8 8 10 11 11 10 9 8 8 9 10 12 12 11 11 12 10 9 10 10 9 7 7 8 8 9 8 6 5 5 6 6 8 10 10
26 27 28 28 25 24 24 23 22 21 20 20 18 17 16 15 14 13 12 11 10 10 9 9 8 7 7 7 8 9 10 10 9 9 8 8 9 11 12 12 11 11 11 11 10 10 10 9 8 7 7 7 8 8 6 5 5 6 7 9 10 10
24 26 28 28 26 25 25 23 22 20 20 20 19 18 16 15 14 13 12 11 10 9 8 8 8 7 7 6 7 8 9 9 9 9 8 8 9 10 11 12 11 11 11 11 11 11 11 9 8 8 7 6 8 8 6 6 8 8 7 7 7 8
23 26 28 28 27 27 26 24 23 22 21 20 19 19 17 16 15 14 13 12 10 9 9 8 8 7 7 6 7 7 7 8 8 8 8 9 9 9 10 11 11 11 10 9 9 9 10 10 9 9 7 5 7 7 7 9 9 8 8 7 5 5
24 28 29 28 28 28 26 26 25 25 24 22 21 20 18 17 16 14 13 11 10 10 9 9 8 7 6 5 5 5 6 7 8 7 7 9 10 9 10 11 10 10 10 9 8 7 8 10 10 10 9 7 4 4 9 13 10 8 8 7 6 6
26 29 30 29 29 28 26 25 25 24 24 22 21 20 18 17 16 14 13 12 11 10 9 8 7 6 5 5 4 4 5 6 7 7 7 8 9 9 10 10 10 10 10 10 9 7 7 9 10 11 10 8 4 2 7 11 10 9 10 9 8 9
27 29 29 29 28 27 26 26 24 23 21 20 19 19 18 17 16 15 14 13 12 10 9 7 6 6 5 5 5 4 4 4 5 6 7 8 8 9 9 9 10 11 11 10 9 8 8 8 9 10 10 9 5 3 4 7 7 8 11 13 11 10
26 28 28 28 27 25 24 25 24 22 20 19 18 18 19 18 17 16 14 13 12 10 9 8 7 7 6 6 6 5 4 4 4 4 5 6 7 8 8 9 9 10 10 10 9 9 9 9 9 9 9 10 9 5 3 5 7 8 9 12 13 14
26 27 27 27 26 25 24 24 23 21 20 21 20 20 20 19 18 16 15 13 12 11 10 9 8 8 7 7 6 5 5 4 4 3 3 4 5 5 6 7 8 9 9 9 9 9 9 9 10 9 8 10 11 8 6 6 8 10 10 10 13 16
25 27 27 26 26 25 25 24 22 21 21 21 22 21 21 20 18 17 15 14 13 12 10 9 9 9 8 7 7 6 5 5 4 4 3 4 5 5 5 6 7 8 8 8 8 9 9 8 9 10 10 10 10 10 10 8 7 9 10 9 13 16
26 27 27 26 26 26 25 23 21 21 21 21 21 21 20 19 18 17 15 13 13 11 10 9 9 9 8 7 7 6 6 6 5 4 3 3 4 4 5 5 6 6 7 7 8 8 8 8 9 9 10 10 10 9 10 7 5 8 10 10 12 16
27 28 27 27 27 26 24 23 22 22 21 20 20 20 19 18 18 16 14 13 12 11 10 9 9 9 8 8 7 7 7 7 6 5 4 3 3 3 4 4 5 5 5 5 6 7 7 8 9 9 9 9 10 9 8 6 4 6 10 11 12 16
29 28 27 28 27 26 24 23 23 22 20 19 18 18 18 18 18 16 14 13 12 11 11 10 10 8 7 7 7 8 9 8 7 6 5 3 2 3 4 5 6 6 6 6 6 6 6 8 9 10 9 9 10 9 8 6 5 6 9 10 13 16
30 30 28 28 27 26 24 22 22 21 19 17 16 16 17 17 17 16 14 13 12 12 11 10 10 9 8 7 7 8 10 10 9 7 5 4 3 3 4 5 7 7 7 6 6 5 5 7 8 9 9 10 10 10 9 8 7 7 8 9 12 14
30 32 31 30 28 25 23 22 22 20 18 16 15 16 17 16 15 15 13 13 12 11 10 10 9 9 8 7 8 9 10 10 9 7 5 4 3 4 5 6 7 6 6 5 5 5 5 6 7 8 9 10 11 11 11 10 9 9 8 9 10 11
27 28 28 27 26 24 23 21 21 20 18 17 15 15 15 15 15 14 13 12 11 11 10 9 8 7 8 8 8 8 9 9 8 7 5 3 3 3 5 6 6 5 4 4 4 5 5 6 6 7 8 9 10 12 12 11 10 10 10 10 10 10
Wind_Direction
189 187 186 183 181 176 173 169 164 160 159 160 160 159 159 159 160 158 157 156 152 149 143 139 140 143 142 143 145 142 147 158 164 171 180 186 189 190 190 192 194 195 199 204 200 192 175 142 132 131 127 122 114 107 100 96 97 93 92 90 89 92
187 187 186 184 181 177 173 168 163 161 161 163 162 162 163 164 164 162 161 159 156 151 145 141 141 144 143 143 146 140 141 147 151 160 173 185 191 195 196 198 200 202 205 210 208 201 188 157 136 133 131 126 117 111 105 101 101 95 92 89 86 87
186 186 186 185 182 179 174 168 164 164 167 166 165 164 164 166 166 165 165 163 159 152 145 141 139 142 144 143 143 140 140 141 143 151 163 177 189 197 201 203 206 209 211 215 215 207 197 178 149 140 138 131 121 116 111 105 98 91 89 86 82 79
184 183 186 186 183 182 176 170 167 170 172 169 165 163 164 168 170 169 169 166 159 154 147 141 139 144 148 143 142 141 140 139 142 147 155 167 181 193 202 206 210 213 215 219 221 214 206 200 170 149 146 138 128 121 114 104 93 83 83 83 79 73
182 182 186 186 184 184 176 170 172 174 173 168 163 162 164 168 171 173 171 166 160 156 149 142 143 147 148 142 142 144 143 142 143 148 152 161 173 185 198 206 211 217 220 222 223 219 211 210 190 159 154 148 136 126 115 102 90 79 79 82 79 73
182 183 185 186 186 183 177 173 175 175 171 166 163 162 165 167 169 172 169 164 161 158 152 148 149 149 147 146 148 148 146 143 142 147 151 156 166 180 193 203 211 218 222 224 223 220 213 212 201 172 163 157 146 134 116 101 91 81 79 83 79 73
184 185 186 188 187 183 180 179 176 172 170 165 162 163 166 166 165 165 164 163 162 160 156 154 153 152 149 150 152 148 145 143 142 145 148 154 160 172 186 198 207 215 220 223 220 216 211 209 202 185 174 164 153 139 118 102 91 79 79 80 73 70
186 186 188 189 187 185 183 180 176 171 169 166 163 165 168 167 165 164 164 163 162 160 157 156 153 153 153 152 151 146 143 144 145 145 147 150 151 157 170 186 200 207 213 216 216 212 206 201 196 188 178 170 158 138 117 107 95 82 82 80 69 65
187 187 187 189 187 186 184 179 176 172 169 170 166 167 169 167 167 165 163 160 159 159 158 157 154 154 157 155 150 145 145 146 150 151 147 143 139 144 154 169 186 192 199 205 211 209 200 195 192 185 176 170 157 136 118 111 103 96 95 95 84 60
187 188 186 188 188 186 186 181 176 174 173 174 168 167 169 166 167 166 162 160 160 162 162 160 158 161 160 156 153 153 157 160 161 158 149 141 136 142 149 158 170 176 183 188 197 197 187 189 190 188 179 167 158 141 126 119 118 117 118 118 112 77
183 187 189 187 187 187 186 181 177 178 178 178 173 169 169 166 167 166 162 162 163 167 169 167 165 167 163 160 163 167 172 176 175 167 153 145 141 152 161 164 171 174 176 175 177 167 154 170 185 193 191 184 177 166 151 147 148 147 148 138 126 127
184 187 192 189 188 188 186 182 180 181 181 183 178 171 170 168 167 165 164 164 166 171 174 172 169 169 167 165 170 175 177 178 176 169 161 157 151 160 175 182 186 187 184 175 166 157 146 151 171 186 193 192 186 181 182 176 172 175 168 147 140 144
191 191 191 189 187 187 185 184 183 182 184 184 178 175 174 171 167 164 165 168 169 172 174 173 170 169 168 166 170 174 174 171 168 163 163 167 161 160 174 187 193 197 199 190 171 158 150 149 159 169 179 185 186 190 192 185 182 186 177 156 148 133
198 196 191 190 187 186 187 186 185 185 186 183 179 178 177 174 170 165 165 168 169 168 169 170 170 170 170 168 171 173 172 171 171 170 171 176 176 173 177 184 190 198 204 197 181 165 158 157 158 160 170 179 182 191 189 184 190 191 186 174 158 137
200 198 192 190 186 187 189 186 186 187 185 183 182 180 180 178 174 169 165 165 165 164 164 167 170 172 175 177 178 179 177 176 176 177 182 189 192 190 188 187 186 191 196 191 181 171 167 163 161 163 167 163 153 175 182 184 194 192 186 187 172 146
202 198 193 191 188 189 189 186 187 186 184 184 185 183 182 180 177 175 171 168 169 168 169 171 174 176 182 188 189 189 188 186 185 184 189 194 195 196 194 190 185 182 183 183 179 175 175 170 169 170 165 144 131 158 170 177 188 188 181 180 176 168
201 197 194 192 190 191 188 185 186 185 185 185 187 187 185 184 182 179 177 177 178 178 180 182 181 180 186 194 196 197 196 195 196 196 199 195 192 197 195 190 187 183 179 178 179 177 178 177 172 166 158 149 139 145 159 169 179 185 183 178 177 182
199 197 196 195 192 192 189 186 186 185 187 187 189 190 189 189 185 182 181 181 182 184 190 192 189 187 191 200 203 202 198 199 200 199 206 200 190 194 198 194 188 184 181 175 174 174 175 175 165 157 156 152 145 144 151 167 183 185 184 184 185 185
198 198 197 196 193 192 189 187 187 186 189 190 191 192 191 190 187 184 182 182 185 189 195 196 196 197 200 205 209 208 203 204 203 201 206 199 190 192 197 197 189 182 181 176 171 168 171 170 159 157 158 148 144 144 145 166 190 184 181 186 187 183
197 198 197 196 194 192 187 186 189 190 190 190 193 195 193 191 188 186 185 185 188 192 197 199 201 201 201 205 209 211 208 207 203 201 203 195 190 192 193 197 191 180 179 179 173 167 167 167 159 154 148 142 140 138 138 160 177 175 179 181 178 175
196 197 197 197 195 191 186 187 191 191 192 191 194 195 194 192 189 187 187 189 192 197 200 201 200 195 197 206 206 203 202 201 199 199 201 195 190 191 191 195 191 180 178 182 179 170 164 165 165 156 144 143 142 133 132 151 155 154 164 170 171 173
197 196 197 198 194 191 189 191 193 192 192 192 194 196 194 191 188 188 189 192 195 197 196 194 194 193 197 204 201 194 191 193 195 196 199 199 195 191 191 193 191 183 178 180 183 177 168 163 169 169 153 144 142 137 141 158 152 146 156 168 175 178
201 197 194 195 193 191 191 193 194 192 192 191 192 193 192 189 187 188 190 190 190 189 188 187 184 186 195 198 191 187 187 190 193 195 197 201 199 192 190 191 190 186 181 179 180 181 177 171 167 166 154 146 148 142 140 156 153 141 154 171 179 184
203 197 192 191 190 190 191 191 191 190 188 188 189 188 186 187 187 188 188 184 182 182 180 182 179 182 194 192 183 183 187 189 192 195 197 200 200 194 192 192 190 188 185 184 182 181 181 179 171 165 156 151 160 153 144 161 155 133 133 155 173 183
203 196 190 188 188 190 190 188 188 186 184 185 186 185 185 187 185 184 184 178 177 178 175 178 177 180 189 186 182 187 191 189 190 193 192 196 198 195 193 193 193 190 188 190 191 189 187 183 178 180 180 163 161 169 177 176 162 136 129 140 157 170
198 192 187 186 187 190 189 187 186 184 184 185 185 185 187 187 182 177 177 175 176 176 173 172 169 171 177 179 184 193 198 196 193 193 190 192 194 191 189 187 189 190 189 190 193 198 201 196 191 194 197 188 184 203 190 180 170 149 140 140 142 143
193 189 187 186 188 189 188 187 187 186 187 188 186 184 182 181 176 172 173 175 174 171 169 166 163 167 171 175 181 184 195 200 200 197 192 194 195 191 187 185 186 187 189 190 188 195 203 205 205 203 202 199 199 200 181 183 183 164 149 141 144 145
191 189 188 188 188 188 187 186 188 188 188 187 184 178 173 171 169 169 171 171 169 167 165 164 164 172 178 183 184 179 184 193 201 201 191 192 198 196 191 189 188 189 193 193 188 190 196 201 209 211 206 199 187 152 161 188 194 180 158 145 146 150
190 189 188 188 188 188 187 187 188 186 185 182 178 172 167 167 167 167 168 165 164 161 157 156 161 171 182 186 186 179 175 176 188 194 188 189 197 203 200 196 194 195 200 201 196 194 195 196 203 213 211 203 200 194 187 187 184 189 175 153 151 154
188 187 186 187 188 187 185 186 186 183 181 175 172 170 167 167 167 165 165 161 156 153 149 146 150 161 169 175 178 177 172 170 174 173 169 170 175 188 197 198 201 204 206 209 204 198 199 199 197 204 211 211 216 222 221 200 184 188 184 164 161 160
187 184 184 186 185 184 183 184 183 180 178 173 171 173 170 167 165 160 157 153 148 144 139 136 139 147 153 160 169 173 174 172 166 156 151 153 154 162 177 189 201 207 209 209 205 199 202 206 203 203 207 209 215 227 226 213 201 197 188 171 162 160
185 184 184 183 183 184 181 180 180 178 177 175 174 175 171 164 157 151 148 144 141 137 131 129 133 139 144 151 162 171 178 177 165 157 156 160 167 171 177 184 191 196 200 202 204 203 205 209 209 209 214 207 202 221 227 210 214 220 204 188 166 156
184 184 184 183 183 183 180 177 176 176 176 176 176 175 169 160 150 145 142 139 136 131 125 122 124 128 135 144 156 167 177 182 174 162 161 163 173 187 191 190 187 187 190 195 200 205 208 210 211 210 219 216 202 212 224 200 203 222 209 201 181 160
183 183 184 184 183 180 178 176 173 175 175 175 176 173 166 157 148 141 138 136 129 122 116 112 110 109 118 134 148 159 168 174 172 162 159 169 182 195 202 198 197 197 197 201 200 202 207 209 211 209 212 215 207 205 212 203 193 194 196 200 192 177
186 187 185 185 184 178 174 173 173 174 174 173 173 168 162 157 149 140 136 134 126 118 112 105 99 94 102 124 137 148 159 164 168 166 167 183 196 199 200 196 198 200 200 205 206 207 213 213 212 210 207 208 206 200 199 199 187 177 187 196 197 197
189 190 187 186 182 175 170 172 173 172 170 171 169 163 160 157 150 140 136 135 127 120 112 101 95 89 97 120 131 141 153 159 163 165 167 181 194 200 198 192 192 195 194 198 203 210 223 225 218 212 207 203 200 196 191 191 182 172 177 189 196 206
194 193 188 183 176 170 170 172 172 169 168 169 166 159 157 156 152 144 140 140 132 125 117 105 97 89 92 115 130 139 150 156 158 156 157 166 182 193 194 192 193 193 190 186 193 207 221 229 224 213 206 200 196 194 189 186 183 174 170 180 195 208